| time (UTC) | temp F | wind direction | speed MPH | gust MPH | rain 1hr in | rain 24hr in | rain mn in | humidity % | barometer mb |
| 20260510132401 | 57 | 6 | 22.0 | 36.0 | 0.00 | 0.00 | 0.00 | 74 | 1014.7 |
| 20260510131858 | 57 | 14 | 24.0 | 37.0 | 0.00 | 0.00 | 0.00 | 74 | 1014.2 |
| 20260510131355 | 57 | 339 | 25.0 | 32.0 | 0.00 | 0.00 | 0.00 | 73 | 1014.2 |
| 20260510130852 | 57 | 9 | 23.0 | 30.0 | 0.00 | 0.00 | 0.00 | 73 | 1014.0 |
| 20260510130349 | 57 | 5 | 26.0 | 30.0 | 0.00 | 0.00 | 0.00 | 72 | 1014.0 |
| 20260510125846 | 58 | 11 | 18.0 | 30.0 | 0.00 | 0.00 | 0.00 | 73 | 1014.0 |
| 20260510125342 | 57 | 18 | 18.0 | 28.0 | 0.00 | 0.00 | 0.00 | 73 | 1013.6 |
| 20260510124839 | 57 | 15 | 25.0 | 32.0 | 0.00 | 0.00 | 0.00 | 73 | 1013.4 |
| 20260510124335 | 57 | 11 | 21.0 | 26.0 | 0.00 | 0.00 | 0.00 | 72 | 1013.6 |
| 20260510123831 | 57 | 4 | 22.0 | 34.0 | 0.00 | 0.00 | 0.00 | 72 | 1013.2 |
| 20260510123327 | 57 | 12 | 24.0 | 33.0 | 0.00 | 0.00 | 0.00 | 72 | 1013.1 |
| 20260510122823 | 57 | 26 | 22.0 | 32.0 | 0.00 | 0.00 | 0.00 | 71 | 1013.0 |
| 20260510122320 | 57 | 23 | 19.0 | 23.0 | 0.00 | 0.00 | 0.00 | 71 | 1013.1 |
| 20260510121816 | 57 | 20 | 19.0 | 31.0 | 0.00 | 0.00 | 0.00 | 70 | 1013.1 |
| 20260510121314 | 57 | 4 | 14.0 | 24.0 | 0.00 | 0.00 | 0.00 | 69 | 1013.1 |
| 20260510120811 | 57 | 18 | 17.0 | 32.0 | 0.00 | 0.00 | 0.00 | 70 | 1012.8 |
| 20260510120307 | 57 | 15 | 18.0 | 26.0 | 0.00 | 0.00 | 0.00 | 69 | 1012.5 |
| 20260510115803 | 57 | 15 | 19.0 | 29.0 | 0.00 | 0.00 | 0.00 | 69 | 1012.5 |
| 20260510115305 | 57 | 30 | 16.0 | 28.0 | 0.00 | 0.00 | 0.00 | 69 | 1012.1 |
| 20260510114756 | 57 | 17 | 16.0 | 26.0 | 0.00 | 0.00 | 0.00 | 68 | 1012.0 |
| 20260510114253 | 57 | 20 | 18.0 | 29.0 | 0.00 | 0.00 | 0.00 | 67 | 1011.8 |
| 20260510113748 | 58 | 9 | 18.0 | 23.0 | 0.00 | 0.00 | 0.00 | 67 | 1011.6 |
| 20260510113245 | 58 | 47 | 15.0 | 21.0 | 0.00 | 0.00 | 0.00 | 66 | 1011.6 |
| 20260510112741 | 58 | 43 | 18.0 | 23.0 | 0.00 | 0.00 | 0.00 | 65 | 1011.8 |
| 20260510112238 | 58 | 27 | 9.0 | 19.0 | 0.00 | 0.00 | 0.00 | 64 | 1011.7 |
| 20260510111734 | 58 | 27 | 12.0 | 22.0 | 0.00 | 0.00 | 0.00 | 63 | 1011.3 |
| 20260510111232 | 59 | 36 | 16.0 | 25.0 | 0.00 | 0.00 | 0.00 | 61 | 1010.9 |
| 20260510110731 | 59 | 10 | 17.0 | 26.0 | 0.00 | 0.00 | 0.00 | 61 | 1010.8 |
| 20260510110229 | 60 | 2 | 17.0 | 26.0 | 0.00 | 0.00 | 0.00 | 67 | 1010.5 |
| 20260510105728 | 60 | 6 | 16.0 | 26.0 | 0.00 | 0.00 | 0.00 | 78 | 1010.5 |
| 20260510105224 | 62 | 30 | 16.0 | 23.0 | 0.00 | 0.00 | 0.00 | 79 | 1010.5 |
| 20260510104720 | 62 | 33 | 18.0 | 26.0 | 0.00 | 0.00 | 0.00 | 79 | 1010.5 |
| 20260510104218 | 62 | 33 | 17.0 | 24.0 | 0.00 | 0.00 | 0.00 | 79 | 1010.4 |
| 20260510103714 | 62 | 27 | 23.0 | 28.0 | 0.00 | 0.00 | 0.00 | 79 | 1010.3 |
| 20260510103211 | 62 | 28 | 13.0 | 26.0 | 0.00 | 0.00 | 0.00 | 80 | 1010.5 |
| 20260510102711 | 61 | 15 | 20.0 | 28.0 | 0.00 | 0.00 | 0.00 | 80 | 1010.3 |
| 20260510102207 | 61 | 10 | 17.0 | 22.0 | 0.00 | 0.00 | 0.00 | 80 | 1010.1 |
| 20260510101705 | 61 | 26 | 12.0 | 22.0 | 0.00 | 0.00 | 0.00 | 80 | 1010.3 |
| 20260510101203 | 61 | 32 | 12.0 | 24.0 | 0.00 | 0.00 | 0.00 | 79 | 1009.9 |
| 20260510100658 | 61 | 14 | 11.0 | 18.0 | 0.00 | 0.00 | 0.00 | 78 | 1010.1 |
| 20260510100157 | 61 | 41 | 10.0 | 21.0 | 0.00 | 0.00 | 0.00 | 77 | 1009.9 |
| 20260510095652 | 61 | 7 | 7.0 | 16.0 | 0.00 | 0.00 | 0.00 | 76 | 1009.4 |
| 20260510095147 | 61 | 31 | 9.0 | 15.0 | 0.00 | 0.00 | 0.00 | 75 | 1009.1 |
| 20260510094646 | 62 | 23 | 12.0 | 17.0 | 0.00 | 0.00 | 0.00 | 74 | 1009.0 |
| 20260510094142 | 62 | 44 | 10.0 | 17.0 | 0.00 | 0.00 | 0.00 | 72 | 1009.1 |
| 20260510093638 | 62 | 21 | 12.0 | 14.0 | 0.00 | 0.00 | 0.00 | 71 | 1009.0 |
| 20260510093135 | 62 | 50 | 6.0 | 11.0 | 0.00 | 0.00 | 0.00 | 70 | 1009.2 |
| 20260510092632 | 62 | 32 | 7.0 | 16.0 | 0.00 | 0.00 | 0.00 | 69 | 1009.1 |
| 20260510092127 | 63 | 50 | 9.0 | 15.0 | 0.00 | 0.00 | 0.00 | 67 | 1009.1 |
| 20260510091623 | 64 | 41 | 9.0 | 19.0 | 0.00 | 0.00 | 0.00 | 65 | 1009.1 |
| 20260510091120 | 64 | 54 | 13.0 | 22.0 | 0.00 | 0.00 | 0.00 | 64 | 1008.7 |
| 20260510090617 | 64 | 55 | 16.0 | 21.0 | 0.00 | 0.00 | 0.00 | 62 | 1008.8 |
| 20260510090113 | 64 | 61 | 15.0 | 22.0 | 0.00 | 0.00 | 0.00 | 59 | 1009.0 |
| 20260510085608 | 64 | 60 | 18.0 | 19.0 | 0.00 | 0.00 | 0.00 | 56 | 1008.7 |
| 20260510085104 | 64 | 45 | 13.0 | 18.0 | 0.00 | 0.00 | 0.00 | 54 | 1008.7 |
| 20260510084601 | 64 | 63 | 10.0 | 15.0 | 0.00 | 0.00 | 0.00 | 51 | 1008.7 |
| 20260510084057 | 65 | 56 | 15.0 | 20.0 | 0.00 | 0.00 | 0.00 | 49 | 1008.4 |
| 20260510083554 | 65 | 48 | 13.0 | 21.0 | 0.00 | 0.00 | 0.00 | 47 | 1008.6 |
| 20260510083050 | 66 | 57 | 18.0 | 23.0 | 0.00 | 0.00 | 0.00 | 44 | 1008.0 |
| 20260510082547 | 66 | 62 | 20.0 | 23.0 | 0.00 | 0.00 | 0.00 | 41 | 1008.1 |
| 20260510082042 | 67 | 49 | 17.0 | 22.0 | 0.00 | 0.00 | 0.00 | 39 | 1008.3 |
| 20260510081538 | 67 | 57 | 19.0 | 23.0 | 0.00 | 0.00 | 0.00 | 37 | 1008.4 |
| 20260510081033 | 67 | 49 | 15.0 | 27.0 | 0.00 | 0.00 | 0.00 | 36 | 1008.4 |
| 20260510080533 | 67 | 56 | 20.0 | 24.0 | 0.00 | 0.00 | 0.00 | 34 | 1008.4 |
| 20260510080030 | 67 | 54 | 18.0 | 19.0 | 0.00 | 0.00 | 0.00 | 33 | 1008.1 |
| 20260510075527 | 67 | 59 | 11.0 | 18.0 | 0.00 | 0.00 | 0.00 | 31 | 1008.2 |
| 20260510075024 | 68 | 26 | 12.0 | 18.0 | 0.00 | 0.00 | 0.00 | 31 | 1008.3 |
| 20260510074522 | 68 | 45 | 10.0 | 19.0 | 0.00 | 0.00 | 0.00 | 30 | 1008.3 |
| 20260510074016 | 69 | 57 | 16.0 | 20.0 | 0.00 | 0.00 | 0.00 | 29 | 1008.2 |
| 20260510073513 | 69 | 62 | 16.0 | 20.0 | 0.00 | 0.00 | 0.00 | 28 | 1008.3 |
| 20260510073010 | 70 | 54 | 13.0 | 17.0 | 0.00 | 0.00 | 0.00 | 27 | 1008.4 |
| 20260510072507 | 71 | 59 | 15.0 | 20.0 | 0.00 | 0.00 | 0.00 | 26 | 1008.8 |
| 20260510072002 | 72 | 61 | 18.0 | 24.0 | 0.00 | 0.00 | 0.00 | 25 | 1008.7 |
| 20260510071458 | 71 | 57 | 11.0 | 25.0 | 0.00 | 0.00 | 0.00 | 25 | 1008.6 |
| 20260510070957 | 69 | 58 | 10.0 | 14.0 | 0.00 | 0.00 | 0.00 | 25 | 1008.9 |
| 20260510070454 | 68 | 72 | 9.0 | 13.0 | 0.00 | 0.00 | 0.00 | 25 | 1008.7 |
| 20260510065949 | 67 | 62 | 19.0 | 19.0 | 0.00 | 0.00 | 0.00 | 25 | 1008.6 |
| 20260510065447 | 68 | 61 | 16.0 | 19.0 | 0.00 | 0.00 | 0.00 | 25 | 1008.4 |
| 20260510064942 | 69 | 60 | 9.0 | 12.0 | 0.00 | 0.00 | 0.00 | 25 | 1008.2 |
| 20260510064440 | 70 | 54 | 8.0 | 11.0 | 0.00 | 0.00 | 0.00 | 24 | 1008.2 |
| 20260510063936 | 70 | 61 | 11.0 | 12.0 | 0.00 | 0.00 | 0.00 | 24 | 1007.9 |
| 20260510063432 | 69 | 2 | 10.0 | 13.0 | 0.00 | 0.00 | 0.00 | 24 | 1008.0 |
| 20260510062931 | 69 | 10 | 11.0 | 13.0 | 0.00 | 0.00 | 0.00 | 24 | 1008.3 |
| 20260510062431 | 69 | 329 | 17.0 | 21.0 | 0.00 | 0.00 | 0.00 | 24 | 1008.1 |
| 20260510061926 | 74 | 60 | 3.0 | 4.0 | 0.00 | 0.00 | 0.00 | 21 | 1007.8 |
| 20260510061423 | 73 | 61 | 2.0 | 2.0 | 0.00 | 0.00 | 0.00 | 22 | 1007.8 |
| 20260510060919 | 72 | 63 | 4.0 | 4.0 | 0.00 | 0.00 | 0.00 | 22 | 1007.8 |
| 20260510060416 | 73 | 81 | 3.0 | 7.0 | 0.00 | 0.00 | 0.00 | 21 | 1007.5 |
| 20260510055913 | 74 | 127 | 5.0 | 5.0 | 0.00 | 0.00 | 0.00 | 21 | 1007.3 |
| 20260510055408 | 75 | 126 | 8.0 | 11.0 | 0.00 | 0.00 | 0.00 | 20 | 1007.3 |
| 20260510054907 | 75 | 160 | 5.0 | 6.0 | 0.00 | 0.00 | 0.00 | 20 | 1007.3 |
| 20260510054402 | 75 | 240 | 4.0 | 7.0 | 0.00 | 0.00 | 0.00 | 20 | 1007.5 |
| 20260510053857 | 73 | 153 | 5.0 | 10.0 | 0.00 | 0.00 | 0.00 | 22 | 1007.1 |
| 20260510053353 | 75 | 299 | 4.0 | 4.0 | 0.00 | 0.00 | 0.00 | 21 | 1007.4 |
| 20260510052849 | 75 | 45 | 2.0 | 3.0 | 0.00 | 0.00 | 0.00 | 20 | 1007.3 |
| 20260510052345 | 74 | 96 | 2.0 | 3.0 | 0.00 | 0.00 | 0.00 | 21 | 1007.4 |
| 20260510051841 | 76 | 257 | 3.0 | 5.0 | 0.00 | 0.00 | 0.00 | 20 | 1007.4 |
| 20260510051338 | 77 | 1 | 3.0 | 5.0 | 0.00 | 0.00 | 0.00 | 19 | 1007.5 |
| 20260510050835 | 77 | 203 | 5.0 | 13.0 | 0.00 | 0.00 | 0.00 | 20 | 1007.5 |
| 20260510050332 | 80 | 70 | 13.0 | 14.0 | 0.00 | 0.00 | 0.00 | 17 | 1007.4 |
| 20260510045829 | 77 | 70 | 11.0 | 13.0 | 0.00 | 0.00 | 0.00 | 19 | 1007.5 |
| 20260510045326 | 76 | 78 | 8.0 | 11.0 | 0.00 | 0.00 | 0.00 | 20 | 1007.7 |
| 20260510044823 | 76 | 67 | 7.0 | 9.0 | 0.00 | 0.00 | 0.00 | 20 | 1007.7 |
| 20260510044320 | 76 | 80 | 7.0 | 9.0 | 0.00 | 0.00 | 0.00 | 19 | 1007.8 |
| 20260510043816 | 75 | 74 | 6.0 | 7.0 | 0.00 | 0.00 | 0.00 | 20 | 1007.7 |
| 20260510043312 | 75 | 12 | 6.0 | 9.0 | 0.00 | 0.00 | 0.00 | 20 | 1007.9 |
| 20260510042810 | 74 | 47 | 9.0 | 11.0 | 0.00 | 0.00 | 0.00 | 21 | 1007.9 |
| 20260510042307 | 73 | 10 | 13.0 | 13.0 | 0.00 | 0.00 | 0.00 | 21 | 1007.8 |
| 20260510041802 | 73 | 17 | 6.0 | 6.0 | 0.00 | 0.00 | 0.00 | 21 | 1007.4 |
| 20260510041259 | 73 | 26 | 4.0 | 5.0 | 0.00 | 0.00 | 0.00 | 21 | 1007.3 |
| 20260510040757 | 72 | 9 | 3.0 | 3.0 | 0.00 | 0.00 | 0.00 | 22 | 1007.3 |
| 20260510040248 | 73 | 294 | 0.0 | 1.0 | 0.00 | 0.00 | 0.00 | 21 | 1007.3 |
| 20260510035743 | 72 | 302 | 2.0 | 2.0 | 0.00 | 0.00 | 0.00 | 22 | 1007.2 |
| 20260510035239 | 73 | 305 | 0.0 | 3.0 | 0.00 | 0.00 | 0.00 | 21 | 1007.0 |
| 20260510034735 | 72 | 295 | 2.0 | 3.0 | 0.00 | 0.00 | 0.00 | 21 | 1006.7 |
| 20260510034233 | 73 | 195 | 0.0 | 0.0 | 0.00 | 0.00 | 0.00 | 21 | 1007.0 |
| 20260510033729 | 73 | 179 | 2.0 | 4.0 | 0.00 | 0.00 | 0.00 | 21 | 1007.1 |
| 20260510033227 | 73 | 208 | 4.0 | 5.0 | 0.00 | 0.00 | 0.00 | 21 | 1007.0 |
| 20260510032723 | 72 | 225 | 5.0 | 5.0 | 0.00 | 0.00 | 0.00 | 22 | 1006.9 |
| 20260510032219 | 73 | 208 | 4.0 | 5.0 | 0.00 | 0.00 | 0.00 | 22 | 1006.7 |
| 20260510031714 | 73 | 207 | 5.0 | 6.0 | 0.00 | 0.00 | 0.00 | 21 | 1006.5 |
| 20260510031210 | 75 | 223 | 6.0 | 7.0 | 0.00 | 0.00 | 0.00 | 20 | 1006.7 |
| 20260510030709 | 74 | 226 | 4.0 | 5.0 | 0.00 | 0.00 | 0.00 | 20 | 1006.2 |
| 20260510030208 | 76 | 243 | 4.0 | 4.0 | 0.00 | 0.00 | 0.00 | 20 | 1006.4 |
| 20260510025705 | 76 | 253 | 2.0 | 3.0 | 0.00 | 0.00 | 0.00 | 20 | 1006.3 |
| 20260510025202 | 77 | 292 | 2.0 | 3.0 | 0.00 | 0.00 | 0.00 | 19 | 1006.5 |
| 20260510024659 | 77 | 283 | 3.0 | 4.0 | 0.00 | 0.00 | 0.00 | 18 | 1006.3 |
| 20260510024155 | 77 | 257 | 3.0 | 4.0 | 0.00 | 0.00 | 0.00 | 18 | 1006.3 |
| 20260510023651 | 78 | 215 | 4.0 | 4.0 | 0.00 | 0.00 | 0.00 | 18 | 1006.1 |
| 20260510023148 | 78 | 200 | 5.0 | 8.0 | 0.00 | 0.00 | 0.00 | 17 | 1006.2 |
| 20260510022643 | 79 | 210 | 10.0 | 13.0 | 0.00 | 0.00 | 0.00 | 17 | 1006.2 |
| 20260510022139 | 78 | 204 | 8.0 | 9.0 | 0.00 | 0.00 | 0.00 | 17 | 1005.8 |
| 20260510021634 | 78 | 204 | 7.0 | 9.0 | 0.00 | 0.00 | 0.00 | 17 | 1005.6 |
| 20260510021132 | 78 | 216 | 6.0 | 8.0 | 0.00 | 0.00 | 0.00 | 17 | 1005.8 |
| 20260510020626 | 77 | 249 | 8.0 | 9.0 | 0.00 | 0.00 | 0.00 | 17 | 1005.8 |
| 20260510020121 | 79 | 225 | 6.0 | 7.0 | 0.00 | 0.00 | 0.00 | 16 | 1005.6 |
| 20260510015618 | 80 | 242 | 7.0 | 10.0 | 0.00 | 0.00 | 0.00 | 16 | 1005.6 |
| 20260510015114 | 82 | 234 | 11.0 | 18.0 | 0.00 | 0.00 | 0.00 | 15 | 1005.7 |
| 20260510014610 | 79 | 244 | 11.0 | 12.0 | 0.00 | 0.00 | 0.00 | 17 | 1005.6 |
| 20260510014108 | 81 | 245 | 11.0 | 13.0 | 0.00 | 0.00 | 0.00 | 15 | 1005.4 |
| 20260510013601 | 82 | 254 | 10.0 | 13.0 | 0.00 | 0.00 | 0.00 | 15 | 1005.7 |
| 20260510013057 | 84 | 260 | 15.0 | 19.0 | 0.00 | 0.00 | 0.00 | 14 | 1005.2 |
| 20260510012551 | 85 | 280 | 20.0 | 27.0 | 0.00 | 0.00 | 0.00 | 13 | 1005.2 |
| 20260510012048 | 84 | 273 | 15.0 | 21.0 | 0.00 | 0.00 | 0.00 | 13 | 1005.3 |
| 20260510011548 | 84 | 243 | 29.0 | 33.0 | 0.00 | 0.00 | 0.00 | 14 | 1005.4 |
| 20260510011044 | 84 | 245 | 26.0 | 34.0 | 0.00 | 0.00 | 0.00 | 13 | 1005.3 |
| 20260510010541 | 82 | 244 | 15.0 | 22.0 | 0.00 | 0.00 | 0.00 | 15 | 1005.5 |
| 20260510010038 | 82 | 231 | 5.0 | 7.0 | 0.00 | 0.00 | 0.00 | 16 | 1005.5 |
| 20260510005533 | 82 | 229 | 9.0 | 10.0 | 0.00 | 0.00 | 0.00 | 16 | 1005.7 |
| 20260510005031 | 83 | 233 | 10.0 | 13.0 | 0.00 | 0.00 | 0.00 | 15 | 1005.5 |
| 20260510004529 | 82 | 230 | 9.0 | 11.0 | 0.00 | 0.00 | 0.00 | 16 | 1005.6 |
| 20260510004026 | 84 | 239 | 11.0 | 13.0 | 0.00 | 0.00 | 0.00 | 15 | 1005.7 |
| 20260510003517 | 84 | 256 | 8.0 | 9.0 | 0.00 | 0.00 | 0.00 | 15 | 1005.6 |
| 20260510003013 | 84 | 267 | 9.0 | 15.0 | 0.00 | 0.00 | 0.00 | 14 | 1005.4 |
| 20260510002508 | 85 | 280 | 4.0 | 17.0 | 0.00 | 0.00 | 0.00 | 14 | 1005.4 |
| 20260510002006 | 86 | 271 | 15.0 | 29.0 | 0.00 | 0.00 | 0.00 | 14 | 1005.8 |
| 20260510001503 | 86 | 227 | 11.0 | 19.0 | 0.00 | 0.00 | 0.00 | 15 | 1005.7 |
| 20260510001001 | 86 | 230 | 23.0 | 23.0 | 0.00 | 0.00 | 0.00 | 15 | 1005.7 |
| 20260510000456 | 85 | 240 | 22.0 | 31.0 | 0.00 | 0.00 | 0.00 | 15 | 1005.6 |
| 20260509235953 | 85 | 233 | 27.0 | 32.0 | 0.00 | 0.00 | 0.00 | 15 | 1005.5 |
| 20260509235450 | 86 | 189 | 10.0 | 18.0 | 0.00 | 0.00 | 0.00 | 14 | 1005.2 |
| 20260509234946 | 86 | 233 | 8.0 | 11.0 | 0.00 | 0.00 | 0.00 | 14 | 1005.6 |
| 20260509234443 | 86 | 206 | 3.0 | 9.0 | 0.00 | 0.00 | 0.00 | 14 | 1005.4 |
| 20260509233941 | 86 | 225 | 13.0 | 22.0 | 0.00 | 0.00 | 0.00 | 14 | 1005.4 |
| 20260509233438 | 87 | 291 | 29.0 | 32.0 | 0.00 | 0.00 | 0.00 | 13 | 1005.5 |
| 20260509232934 | 87 | 220 | 18.0 | 21.0 | 0.00 | 0.00 | 0.00 | 13 | 1005.3 |
| 20260509232432 | 87 | 247 | 12.0 | 18.0 | 0.00 | 0.00 | 0.00 | 14 | 1005.4 |
| 20260509231927 | 87 | 245 | 12.0 | 14.0 | 0.00 | 0.00 | 0.00 | 14 | 1005.3 |
| 20260509231424 | 87 | 231 | 12.0 | 22.0 | 0.00 | 0.00 | 0.00 | 14 | 1005.4 |
| 20260509230923 | 87 | 219 | 19.0 | 30.0 | 0.00 | 0.00 | 0.00 | 13 | 1005.6 |
| 20260509230419 | 90 | 229 | 27.0 | 29.0 | 0.00 | 0.00 | 0.00 | 13 | 1005.3 |
| 20260509225915 | 90 | 249 | 17.0 | 22.0 | 0.00 | 0.00 | 0.00 | 12 | 1005.4 |
| 20260509225412 | 88 | 252 | 18.0 | 30.0 | 0.00 | 0.00 | 0.00 | 12 | 1005.4 |
| 20260509224908 | 89 | 254 | 17.0 | 22.0 | 0.00 | 0.00 | 0.00 | 13 | 1005.6 |
| 20260509224403 | 89 | 232 | 15.0 | 20.0 | 0.00 | 0.00 | 0.00 | 12 | 1005.6 |
| 20260509223900 | 89 | 231 | 13.0 | 18.0 | 0.00 | 0.00 | 0.00 | 12 | 1005.4 |
| 20260509223351 | 87 | 286 | 11.0 | 16.0 | 0.00 | 0.00 | 0.00 | 12 | 1005.5 |
| 20260509222848 | 87 | 316 | 9.0 | 18.0 | 0.00 | 0.00 | 0.00 | 13 | 1005.3 |
| 20260509222343 | 87 | 304 | 8.0 | 20.0 | 0.00 | 0.00 | 0.00 | 12 | 1005.7 |
| 20260509221838 | 87 | 302 | 11.0 | 22.0 | 0.00 | 0.00 | 0.00 | 12 | 1005.8 |
| 20260509221336 | 87 | 358 | 6.0 | 9.0 | 0.00 | 0.00 | 0.00 | 12 | 1005.7 |
| 20260509220831 | 87 | 306 | 6.0 | 11.0 | 0.00 | 0.00 | 0.00 | 12 | 1005.8 |
| 20260509220328 | 87 | 337 | 8.0 | 11.0 | 0.00 | 0.00 | 0.00 | 12 | 1005.6 |
| 20260509215823 | 87 | 279 | 12.0 | 17.0 | 0.00 | 0.00 | 0.00 | 12 | 1005.8 |
| 20260509215320 | 87 | 319 | 15.0 | 19.0 | 0.00 | 0.00 | 0.00 | 12 | 1005.8 |
| 20260509214817 | 87 | 319 | 10.0 | 14.0 | 0.00 | 0.00 | 0.00 | 12 | 1006.1 |
| 20260509214314 | 89 | 317 | 13.0 | 20.0 | 0.00 | 0.00 | 0.00 | 11 | 1006.2 |
| 20260509213811 | 88 | 273 | 11.0 | 20.0 | 0.00 | 0.00 | 0.00 | 12 | 1006.3 |
| 20260509213307 | 87 | 277 | 17.0 | 21.0 | 0.00 | 0.00 | 0.00 | 12 | 1006.2 |
| 20260509212804 | 88 | 259 | 17.0 | 18.0 | 0.00 | 0.00 | 0.00 | 12 | 1006.3 |
| 20260509212305 | 90 | 311 | 22.0 | 25.0 | 0.00 | 0.00 | 0.00 | 11 | 1006.6 |
| 20260509211757 | 89 | 293 | 17.0 | 23.0 | 0.00 | 0.00 | 0.00 | 11 | 1006.5 |
| 20260509211253 | 89 | 286 | 23.0 | 33.0 | 0.00 | 0.00 | 0.00 | 11 | 1006.5 |
| 20260509210750 | 90 | 288 | 26.0 | 30.0 | 0.00 | 0.00 | 0.00 | 11 | 1006.6 |
| 20260509210248 | 87 | 256 | 18.0 | 26.0 | 0.00 | 0.00 | 0.00 | 12 | 1007.0 |
| 20260509205747 | 89 | 283 | 13.0 | 21.0 | 0.00 | 0.00 | 0.00 | 11 | 1007.2 |
| 20260509205242 | 87 | 319 | 15.0 | 18.0 | 0.00 | 0.00 | 0.00 | 12 | 1007.0 |
| 20260509204738 | 88 | 239 | 23.0 | 26.0 | 0.00 | 0.00 | 0.00 | 11 | 1007.1 |
| 20260509204235 | 88 | 272 | 19.0 | 23.0 | 0.00 | 0.00 | 0.00 | 12 | 1007.1 |
| 20260509203731 | 87 | 281 | 11.0 | 24.0 | 0.00 | 0.00 | 0.00 | 12 | 1007.3 |
| 20260509203229 | 87 | 274 | 5.0 | 17.0 | 0.00 | 0.00 | 0.00 | 13 | 1007.2 |
| 20260509202725 | 88 | 306 | 15.0 | 20.0 | 0.00 | 0.00 | 0.00 | 12 | 1007.4 |
| 20260509202221 | 88 | 321 | 18.0 | 26.0 | 0.00 | 0.00 | 0.00 | 12 | 1007.4 |
| 20260509201715 | 88 | 312 | 16.0 | 23.0 | 0.00 | 0.00 | 0.00 | 12 | 1007.7 |
| 20260509201212 | 87 | 279 | 19.0 | 28.0 | 0.00 | 0.00 | 0.00 | 12 | 1007.7 |
| 20260509200709 | 87 | 278 | 15.0 | 30.0 | 0.00 | 0.00 | 0.00 | 12 | 1007.8 |
| 20260509200203 | 86 | 310 | 15.0 | 17.0 | 0.00 | 0.00 | 0.00 | 12 | 1007.9 |
| 20260509195659 | 87 | 279 | 11.0 | 25.0 | 0.00 | 0.00 | 0.00 | 12 | 1008.0 |
| 20260509195155 | 87 | 292 | 18.0 | 29.0 | 0.00 | 0.00 | 0.00 | 12 | 1007.9 |
| 20260509194649 | 85 | 304 | 12.0 | 14.0 | 0.00 | 0.00 | 0.00 | 14 | 1007.9 |
| 20260509194146 | 86 | 281 | 15.0 | 20.0 | 0.00 | 0.00 | 0.00 | 14 | 1008.1 |
| 20260509193642 | 87 | 253 | 21.0 | 28.0 | 0.00 | 0.00 | 0.00 | 14 | 1008.1 |
| 20260509193138 | 86 | 255 | 16.0 | 26.0 | 0.00 | 0.00 | 0.00 | 13 | 1008.1 |
| 20260509192635 | 87 | 277 | 12.0 | 18.0 | 0.00 | 0.00 | 0.00 | 14 | 1008.1 |
| 20260509192129 | 86 | 249 | 10.0 | 22.0 | 0.00 | 0.00 | 0.00 | 13 | 1008.2 |
| 20260509191624 | 86 | 285 | 20.0 | 25.0 | 0.00 | 0.00 | 0.00 | 12 | 1008.2 |
| 20260509191121 | 87 | 259 | 25.0 | 25.0 | 0.00 | 0.00 | 0.00 | 15 | 1008.2 |
| 20260509190617 | 87 | 257 | 11.0 | 19.0 | 0.00 | 0.00 | 0.00 | 15 | 1008.6 |
| 20260509190115 | 87 | 266 | 24.0 | 26.0 | 0.00 | 0.00 | 0.00 | 15 | 1008.6 |
| 20260509185612 | 86 | 268 | 12.0 | 17.0 | 0.00 | 0.00 | 0.00 | 16 | 1008.6 |
| 20260509185108 | 86 | 297 | 10.0 | 26.0 | 0.00 | 0.00 | 0.00 | 15 | 1008.7 |
| 20260509184607 | 85 | 267 | 14.0 | 20.0 | 0.00 | 0.00 | 0.00 | 16 | 1008.4 |
| 20260509184103 | 85 | 260 | 20.0 | 25.0 | 0.00 | 0.00 | 0.00 | 15 | 1008.8 |
| 20260509183558 | 85 | 252 | 21.0 | 27.0 | 0.00 | 0.00 | 0.00 | 16 | 1008.8 |
| 20260509183054 | 84 | 262 | 21.0 | 24.0 | 0.00 | 0.00 | 0.00 | 16 | 1009.2 |
| 20260509182551 | 84 | 267 | 18.0 | 28.0 | 0.00 | 0.00 | 0.00 | 16 | 1009.0 |
| 20260509182048 | 84 | 279 | 17.0 | 19.0 | 0.00 | 0.00 | 0.00 | 17 | 1009.4 |
| 20260509181546 | 84 | 240 | 20.0 | 24.0 | 0.00 | 0.00 | 0.00 | 17 | 1009.2 |
| 20260509181043 | 83 | 269 | 14.0 | 23.0 | 0.00 | 0.00 | 0.00 | 17 | 1009.2 |
| 20260509180538 | 83 | 248 | 20.0 | 24.0 | 0.00 | 0.00 | 0.00 | 17 | 1009.2 |
| 20260509180036 | 84 | 264 | 15.0 | 25.0 | 0.00 | 0.00 | 0.00 | 17 | 1009.5 |
| 20260509175531 | 83 | 252 | 11.0 | 22.0 | 0.00 | 0.00 | 0.00 | 18 | 1009.4 |
| 20260509175029 | 84 | 255 | 16.0 | 22.0 | 0.00 | 0.00 | 0.00 | 19 | 1009.0 |
| 20260509174526 | 84 | 247 | 14.0 | 26.0 | 0.00 | 0.00 | 0.00 | 19 | 1009.6 |
| 20260509174020 | 82 | 253 | 21.0 | 24.0 | 0.00 | 0.00 | 0.00 | 21 | 1009.5 |
| 20260509173515 | 81 | 255 | 14.0 | 17.0 | 0.00 | 0.00 | 0.00 | 23 | 1009.9 |
| 20260509173011 | 82 | 254 | 14.0 | 21.0 | 0.00 | 0.00 | 0.00 | 22 | 1009.9 |
| 20260509172508 | 80 | 247 | 16.0 | 22.0 | 0.00 | 0.00 | 0.00 | 23 | 1009.8 |
| 20260509172004 | 80 | 249 | 18.0 | 19.0 | 0.00 | 0.00 | 0.00 | 24 | 1010.0 |
| 20260509171500 | 79 | 232 | 13.0 | 22.0 | 0.00 | 0.00 | 0.00 | 24 | 1010.3 |
| 20260509170957 | 79 | 244 | 23.0 | 24.0 | 0.00 | 0.00 | 0.00 | 23 | 1010.3 |
| 20260509170452 | 80 | 245 | 17.0 | 24.0 | 0.00 | 0.00 | 0.00 | 23 | 1010.1 |
| 20260509165948 | 79 | 249 | 17.0 | 30.0 | 0.00 | 0.00 | 0.00 | 24 | 1010.3 |
| 20260509165447 | 77 | 238 | 20.0 | 25.0 | 0.00 | 0.00 | 0.00 | 25 | 1010.3 |
| 20260509164943 | 76 | 228 | 12.0 | 24.0 | 0.00 | 0.00 | 0.00 | 27 | 1010.3 |
| 20260509164439 | 77 | 237 | 19.0 | 26.0 | 0.00 | 0.00 | 0.00 | 26 | 1010.8 |
| 20260509163935 | 76 | 243 | 22.0 | 24.0 | 0.00 | 0.00 | 0.00 | 26 | 1010.6 |
| 20260509163433 | 76 | 250 | 20.0 | 26.0 | 0.00 | 0.00 | 0.00 | 27 | 1010.5 |
| 20260509162932 | 76 | 249 | 17.0 | 27.0 | 0.00 | 0.00 | 0.00 | 27 | 1010.5 |
| 20260509162431 | 76 | 242 | 15.0 | 26.0 | 0.00 | 0.00 | 0.00 | 26 | 1010.5 |
| 20260509161926 | 76 | 248 | 19.0 | 28.0 | 0.00 | 0.00 | 0.00 | 26 | 1010.5 |
| 20260509161423 | 75 | 244 | 20.0 | 22.0 | 0.00 | 0.00 | 0.00 | 27 | 1010.3 |
| 20260509160918 | 76 | 244 | 21.0 | 22.0 | 0.00 | 0.00 | 0.00 | 27 | 1010.3 |
| 20260509160414 | 75 | 217 | 17.0 | 24.0 | 0.00 | 0.00 | 0.00 | 28 | 1010.0 |
| 20260509155910 | 75 | 221 | 12.0 | 21.0 | 0.00 | 0.00 | 0.00 | 28 | 1010.0 |
| 20260509155407 | 75 | 200 | 12.0 | 20.0 | 0.00 | 0.00 | 0.00 | 28 | 1010.1 |
| 20260509154903 | 74 | 210 | 15.0 | 17.0 | 0.00 | 0.00 | 0.00 | 29 | 1010.1 |
| 20260509154359 | 73 | 208 | 15.0 | 25.0 | 0.00 | 0.00 | 0.00 | 29 | 1010.0 |
| 20260509153856 | 73 | 203 | 16.0 | 20.0 | 0.00 | 0.00 | 0.00 | 31 | 1010.1 |
| 20260509153354 | 72 | 184 | 14.0 | 21.0 | 0.00 | 0.00 | 0.00 | 31 | 1010.3 |
| 20260509152850 | 72 | 194 | 14.0 | 22.0 | 0.00 | 0.00 | 0.00 | 32 | 1010.5 |
| 20260509152346 | 72 | 193 | 20.0 | 21.0 | 0.00 | 0.00 | 0.00 | 32 | 1010.4 |
| 20260509151844 | 71 | 189 | 15.0 | 20.0 | 0.00 | 0.00 | 0.00 | 33 | 1010.5 |
| 20260509151339 | 71 | 165 | 18.0 | 20.0 | 0.00 | 0.00 | 0.00 | 34 | 1010.5 |
| 20260509150838 | 71 | 189 | 15.0 | 22.0 | 0.00 | 0.00 | 0.00 | 34 | 1010.4 |
| 20260509150336 | 69 | 180 | 13.0 | 19.0 | 0.00 | 0.00 | 0.00 | 36 | 1010.5 |
| 20260509145833 | 69 | 185 | 13.0 | 22.0 | 0.00 | 0.00 | 0.00 | 36 | 1010.7 |
| 20260509145327 | 68 | 152 | 12.0 | 18.0 | 0.00 | 0.00 | 0.00 | 38 | 1010.9 |
| 20260509144824 | 67 | 151 | 11.0 | 20.0 | 0.00 | 0.00 | 0.00 | 39 | 1010.8 |
| 20260509144321 | 68 | 144 | 13.0 | 19.0 | 0.00 | 0.00 | 0.00 | 39 | 1010.8 |
| 20260509143818 | 66 | 164 | 18.0 | 24.0 | 0.00 | 0.00 | 0.00 | 40 | 1010.9 |
| 20260509143316 | 66 | 165 | 15.0 | 21.0 | 0.00 | 0.00 | 0.00 | 40 | 1010.7 |
| 20260509142811 | 65 | 158 | 17.0 | 23.0 | 0.00 | 0.00 | 0.00 | 42 | 1010.8 |
| 20260509142308 | 66 | 159 | 18.0 | 20.0 | 0.00 | 0.00 | 0.00 | 42 | 1010.8 |
| 20260509141803 | 65 | 155 | 12.0 | 22.0 | 0.00 | 0.00 | 0.00 | 43 | 1010.9 |
| 20260509141300 | 65 | 157 | 13.0 | 19.0 | 0.00 | 0.00 | 0.00 | 44 | 1011.3 |
| 20260509140757 | 65 | 135 | 11.0 | 15.0 | 0.00 | 0.00 | 0.00 | 44 | 1010.7 |
| 20260509140254 | 64 | 132 | 13.0 | 16.0 | 0.00 | 0.00 | 0.00 | 46 | 1011.4 |
| 20260509135752 | 63 | 147 | 13.0 | 15.0 | 0.00 | 0.00 | 0.00 | 46 | 1011.2 |
| 20260509135249 | 63 | 135 | 11.0 | 15.0 | 0.00 | 0.00 | 0.00 | 47 | 1011.1 |
| 20260509134746 | 63 | 137 | 7.0 | 12.0 | 0.00 | 0.00 | 0.00 | 46 | 1011.2 |
| 20260509134244 | 63 | 138 | 12.0 | 15.0 | 0.00 | 0.00 | 0.00 | 46 | 1011.2 |
| 20260509133740 | 63 | 112 | 11.0 | 12.0 | 0.00 | 0.00 | 0.00 | 45 | 1011.3 |
| 20260509133237 | 62 | 126 | 6.0 | 8.0 | 0.00 | 0.00 | 0.00 | 44 | 1011.3 |
| 20260509132736 | 62 | 102 | 5.0 | 5.0 | 0.00 | 0.00 | 0.00 | 44 | 1010.9 |